Tracking 31011 objects as of 11-Jul-2025
HD Live streaming from Space Station
objects crossing your sky now

COSMOS 1867 COOLANT

Track COSMOS 1867 COOLANT now!
10-day predictions


NORAD ID: 39674
Int'l Code: 1987-060AM
Perigee: 774.2 km
Apogee: 794.7 km
Inclination: 65.0 °
Period: 100.4 minutes
Semi major axis: 7155 km
RCS: Unknown
Launch date: July 10, 1987
Source: Commonwealth of Independent States (former USSR) (CIS)
Launch site: TYURATAM MISSILE AND SPACE COMPLEX (TTMTR)

Note: This is SATELLITE DEBRIS
Your satellite tracking list
Your tracking list is empty




NASA's NSSDC Master Catalog

Two Line Element Set (TLE):
1 39674U 87060AM  25192.55719765  .00000196  00000-0  10522-3 0  9993
2 39674  65.0092 247.9298 0014363 259.9850  99.9615 14.34319734587838
Source of the keplerian elements: AFSPC